Location: Unspecified
(0.0000°N, 0.0000°E)
Time: 07:32:29
(UTC+00:00)

Tiros 1 - Visible Passes

Search period start: 08 February 2023 00:00
Search period end: 18 February 2023 00:00
Orbit: 629 x 662 km, 48.4° (Epoch: 07 February)

Date Brightness Start Highest point End Pass type
(mag) Time Alt. Az. Time Alt. Az. Time Alt. Az.
08 Feb 9.2 20:10:59 10° W 20:14:17 19° NW 20:15:04 18° NW visible
09 Feb 7.3 18:52:59 10° SW 18:57:38 75° NW 19:02:14 10° NE visible
10 Feb 9.7 05:25:17 10° NNE 05:28:08 16° NE 05:30:59 10° E visible
10 Feb 9.2 19:19:20 10° WSW 19:22:57 22° NW 19:26:32 10° N visible
12 Feb 9.8 04:34:28 10° NNE 04:36:46 13° NE 04:39:04 10° E visible
13 Feb 8.2 04:58:30 15° NNW 05:02:07 42° NE 05:06:37 10° ESE visible
14 Feb 10.0 03:45:58 11° ENE 03:45:58 11° ENE 03:46:53 10° ENE visible
14 Feb 7.3 05:23:38 15° NW 05:27:25 56° SW 05:32:05 10° SSE visible
15 Feb 8.4 04:11:06 35° ENE 04:11:06 35° ENE 04:15:06 10° ESE visible
16 Feb 7.1 04:36:11 66° SW 04:36:11 66° SW 04:40:45 10° SSE visible
17 Feb 8.6 05:01:13 21° SW 05:01:22 21° SW 05:04:55 10° S visible
